Location: Newark
(51.3318°N, 0.0053°E)
Time: 21:10:37
(UTC+00:00)

RS-44 - Pass Details

Date: 30 June 2022
Orbit: 1175 x 1510 km, 82.5° (Epoch: 13 August)

Event Time Altitude Azimuth Distance (km) Brightness Sun altitude
Rises 21:02:00 0° 198° (SSW) 4,345 ? -5.5°
Reaches altitude 10° 21:04:43 10° 201° (SSW) 3,419 ? -5.8°
Maximum altitude 21:12:56 70° 285° (WNW) 1,522 ? -6.6°
Drops below altitude 10° 21:21:44 10° 9° (N) 3,649 ? -7.5°
Sets 21:24:44 0° 12° (NNE) 4,652 ? -7.8°
